Location: Igloolik
(69.3800°N, 81.8000°W)
Time: 09:47:58
(UTC-05:00)

Amateur Radio Satellites - All Passes

Search period start: 27 April 2017 09:17
Search period end: 28 April 2017 09:17
Location: Igloolik, 69.3800°N, 81.8000°W

Satellite Date Start Highest point End Downlink Frequencies (MHz)
Time Altitude Azimuth
FO-29 27 Apr 09:19:09 09:24:54 74° 249° (WSW) 09:30:13 435.910
XW-2F 27 Apr 09:22:18 09:25:34 28° 317° (NW) 09:28:50 145.980 - 146.000
Oscar 19 27 Apr 09:23:10 09:27:35 29° 26° (NNE) 09:32:02 437.125/150
EO-79 27 Apr 09:26:18 09:30:20 45° 51° (NE) 09:34:22 145.935-145.965
CUBEBUG 2 27 Apr 09:27:31 09:31:43 87° 109° (ESE) 09:35:54 437.445
DUCHIFAT 1 27 Apr 09:27:39 09:31:37 42° 50° (NE) 09:35:35 145.980
Gurwin Techsat 1B 27 Apr 09:29:42 09:34:09 28° 21° (NNE) 09:38:37 435.225
NUDT-PHONESAT 27 Apr 09:32:02 09:35:10 26° 317° (NW) 09:38:19 437.300
XW-2A 27 Apr 09:32:07 09:35:23 50° 302° (WNW) 09:38:40 145.665 - 145.685
TIGRISAT 27 Apr 09:40:14 09:44:26 49° 258° (WSW) 09:48:36 435.000
AAUSAT CUBESAT 2 27 Apr 09:41:03 09:45:18 87° 107° (ESE) 09:49:32 437.432
CUTE 1.7 + AOD 2 27 Apr 09:51:49 09:55:59 50° 305° (NW) 10:00:10 437.475
AIST 2D 27 Apr 09:52:14 09:55:43 71° 64° (ENE) 09:59:14 435.315
UNISAT 6 27 Apr 10:02:04 10:06:04 36° 263° (W) 10:10:04 437.425
POLYITAN 1 27 Apr 10:05:33 10:09:45 70° 60° (ENE) 10:13:57 437.675
ZACube-1 27 Apr 10:07:04 10:11:15 85° 108° (ESE) 10:15:30 437.345
O/OREOS (USA 219) 27 Apr 10:09:18 10:12:43 21° 110° (ESE) 10:16:08 437.305
RS-15 27 Apr 10:10:07 10:22:12 66° 155° (SSE) 10:34:15 29.354- 29.394
SEEDS 27 Apr 10:10:38 10:14:46 49° 306° (NW) 10:18:53 437.485
QB50P2 27 Apr 10:12:11 10:16:24 78° 64° (ENE) 10:20:39 145.880/145.840
XW-2D 27 Apr 10:12:36 10:15:18 19° 329° (NNW) 10:18:00 145.860 - 145.880
AO-73 27 Apr 10:13:33 10:17:45 88° 112° (ESE) 10:22:00 145.935
DELFI C3 27 Apr 10:19:17 10:23:13 47° 101° (ESE) 10:27:07 145.870
LO-87 27 Apr 10:19:29 10:21:36 15° 82° (E) 10:23:41 145.935 - 145.965
XW-2B 27 Apr 10:19:34 10:22:13 18° 331° (NNW) 10:24:51 145.730 - 145.750
DOVE 4 27 Apr 10:19:56 10:23:52 24° 336° (NNW) 10:27:38 437.250
ESTCUBE 1 27 Apr 10:21:32 10:24:07 15° 76° (ENE) 10:26:42 437.505/2401.250
AO-7 27 Apr 10:24:46 10:32:36 49° 9° (N) 10:40:27 .
CUTE-I 27 Apr 10:25:05 10:29:48 33° 330° (NNW) 10:34:30 437.470
BUGSAT 1 27 Apr 10:26:52 10:30:50 49° 53° (NE) 10:34:46 437.445
KAITUO 1B 27 Apr 10:27:38 10:30:12 18° 331° (NNW) 10:32:47 145.475/437.950
PCSat 27 Apr 10:27:40 10:32:15 28° 232° (SW) 10:36:48 145.827
Oscar 11 27 Apr 10:28:17 10:32:40 86° 294° (WNW) 10:37:02 .
LilacSat-2 27 Apr 10:31:20 10:33:50 17° 334° (NNW) 10:36:21 437.200
XW-2C 27 Apr 10:31:33 10:34:02 17° 334° (NNW) 10:36:32 145.795 - 145.815
NANOSAT C BR1 27 Apr 10:33:29 10:37:43 89° 250° (WSW) 10:41:57 145.865
SO-50 27 Apr 10:39:36 10:43:59 47° 180° (S) 10:48:19 436.795
UWE-3 27 Apr 10:49:35 10:53:34 46° 307° (NW) 10:57:36 435.000/436.395/437.385
ITAMSAT 1 27 Apr 10:50:40 10:54:58 27° 20° (NNE) 10:59:16 435.822/435.867
OBJECT BX 27 Apr 10:50:47 10:54:27 61° 107° (ESE) 10:58:06 145.990 - 145.960
HO-68 27 Apr 10:52:37 10:59:39 59° 319° (NW) 11:06:41 435.675
PRISM 27 Apr 10:55:31 10:57:56 15° 280° (W) 11:00:23 437.425
XW-2F 27 Apr 10:56:38 10:58:49 15° 339° (NNW) 11:01:01 145.980 - 146.000
Oscar 19 27 Apr 11:01:10 11:06:13 53° 49° (NE) 11:11:18 437.125/150
EO-79 27 Apr 11:01:54 11:06:05 61° 253° (WSW) 11:10:18 145.935-145.965
DUCHIFAT 1 27 Apr 11:03:03 11:07:14 66° 251° (WSW) 11:11:25 145.980
CUBEBUG 2 27 Apr 11:04:21 11:08:07 33° 315° (NW) 11:11:52 437.445
XW-2A 27 Apr 11:05:13 11:07:38 18° 324° (NW) 11:10:02 145.665 - 145.685
FO-29 27 Apr 11:06:06 11:10:56 27° 273° (W) 11:15:29 435.910
NUDT-PHONESAT 27 Apr 11:06:08 11:08:11 14° 340° (NNW) 11:10:13 437.300
Gurwin Techsat 1B 27 Apr 11:08:13 11:13:19 47° 45° (NE) 11:18:25 435.225
YUBILEINY 27 Apr 11:10:57 11:19:01 38° 19° (NNE) 11:27:06 435.215
AAUSAT CUBESAT 2 27 Apr 11:16:42 11:20:31 34° 315° (NW) 11:24:20 437.432
TIGRISAT 27 Apr 11:19:28 11:22:09 16° 281° (W) 11:24:49 435.000
AIST 2D 27 Apr 11:26:11 11:29:17 29° 266° (W) 11:32:24 435.315
CUTE 1.7 + AOD 2 27 Apr 11:27:48 11:31:12 23° 328° (NNW) 11:34:35 437.475
SPROUT 27 Apr 11:29:20 11:31:59 16° 79° (E) 11:34:38 437.525
POLYITAN 1 27 Apr 11:41:56 11:45:52 37° 263° (W) 11:49:48 437.675
UNISAT 6 27 Apr 11:42:23 11:44:04 12° 287° (WNW) 11:45:45 437.425
ZACube-1 27 Apr 11:43:34 11:47:20 34° 315° (NW) 11:51:09 437.345
SEEDS 27 Apr 11:46:28 11:49:49 23° 329° (NNW) 11:53:10 437.485
XW-2D 27 Apr 11:46:40 11:48:23 13° 352° (N) 11:50:06 145.860 - 145.880
O/OREOS (USA 219) 27 Apr 11:46:52 11:51:22 53° 133° (SE) 11:55:53 437.305
QB50P2 27 Apr 11:48:47 11:52:37 33° 265° (W) 11:56:28 145.880/145.840
AO-73 27 Apr 11:50:00 11:53:46 33° 315° (NW) 11:57:34 145.935
LO-87 27 Apr 11:52:18 11:55:51 52° 104° (ESE) 11:59:23 145.935 - 145.965
XW-2B 27 Apr 11:53:36 11:55:17 13° 354° (N) 11:56:58 145.730 - 145.750
DELFI C3 27 Apr 11:54:11 11:58:08 53° 303° (WNW) 12:02:04 145.870
DOVE 4 27 Apr 11:56:48 12:00:20 19° 360° (N) 12:03:44 437.250
ESTCUBE 1 27 Apr 11:57:45 12:02:07 43° 99° (E) 12:06:28 437.505/2401.250
KAITUO 1B 27 Apr 12:01:31 12:03:06 12° 353° (N) 12:04:42 145.475/437.950
BUGSAT 1 27 Apr 12:02:13 12:06:15 53° 255° (WSW) 12:10:16 437.445
CUTE-I 27 Apr 12:04:35 12:08:48 24° 354° (N) 12:13:00 437.470
Oscar 11 27 Apr 12:04:36 12:08:30 33° 317° (NW) 12:12:25 .
LilacSat-2 27 Apr 12:05:17 12:06:58 13° 357° (N) 12:08:39 437.200
XW-2C 27 Apr 12:05:28 12:07:05 12° 356° (N) 12:08:43 145.795 - 145.815
VELOX 1 27 Apr 12:07:49 12:11:34 26° 89° (E) 12:15:18 145.980
NANOSAT C BR1 27 Apr 12:10:19 12:13:58 28° 268° (W) 12:17:37 145.865
PCSat 27 Apr 12:12:35 12:14:04 11° 255° (WSW) 12:15:33 145.827
AO-7 27 Apr 12:16:28 12:24:38 65° 36° (NE) 12:32:50 .
SO-50 27 Apr 12:19:45 12:23:56 37° 203° (SSW) 12:28:05 436.795
RS-15 27 Apr 12:21:49 12:34:06 72° 186° (S) 12:46:10 29.354- 29.394
50 SAT 27 Apr 12:21:51 12:24:28 19° 88° (E) 12:27:04 437.505
UKube-1 27 Apr 12:23:05 12:25:48 16° 80° (E) 12:28:29 .
OBJECT BX 27 Apr 12:24:39 12:28:05 38° 308° (NW) 12:31:31 145.990 - 145.960
UWE-3 27 Apr 12:26:12 12:29:23 22° 330° (NNW) 12:32:34 435.000/436.395/437.385
ITAMSAT 1 27 Apr 12:28:43 12:33:38 45° 43° (NE) 12:38:35 435.822/435.867
XW-2F 27 Apr 12:30:11 12:31:45 12° 2° (N) 12:33:20 145.980 - 146.000
XW-2A 27 Apr 12:38:29 12:39:23 11° 346° (NNW) 12:40:17 145.665 - 145.685
NUDT-PHONESAT 27 Apr 12:39:29 12:40:54 12° 3° (N) 12:42:19 437.300
EO-79 27 Apr 12:39:37 12:42:42 19° 276° (W) 12:45:46 145.935-145.965
HO-68 27 Apr 12:40:01 12:46:35 40° 345° (NNW) 12:53:10 435.675
Oscar 19 27 Apr 12:40:25 12:45:35 64° 252° (WSW) 12:50:48 437.125/150
DUCHIFAT 1 27 Apr 12:40:30 12:43:41 21° 275° (W) 12:46:52 145.980
CUBEBUG 2 27 Apr 12:41:02 12:43:53 18° 339° (NNW) 12:46:43 437.445
Gurwin Techsat 1B 27 Apr 12:47:49 12:53:09 76° 247° (WSW) 12:58:32 435.225
AAUSAT CUBESAT 2 27 Apr 12:52:13 12:55:07 18° 338° (NNW) 12:58:02 437.432
DX 1 27 Apr 12:57:13 13:01:03 28° 92° (E) 13:04:50 434.975-435.025
AO-85 27 Apr 13:02:17 13:04:19 14° 129° (SE) 13:06:18 145.980
CUTE 1.7 + AOD 2 27 Apr 13:03:20 13:05:55 16° 351° (N) 13:08:31 437.475
SPROUT 27 Apr 13:04:44 13:08:54 49° 102° (ESE) 13:13:03 437.525
YUBILEINY 27 Apr 13:09:08 13:17:46 58° 49° (NE) 13:26:26 435.215
XW-2D 27 Apr 13:19:24 13:21:21 14° 15° (NNE) 13:23:19 145.860 - 145.880
ZACube-1 27 Apr 13:19:56 13:22:47 18° 338° (NNW) 13:25:41 437.345
POLYITAN 1 27 Apr 13:21:12 13:22:53 12° 286° (WNW) 13:24:33 437.675
SEEDS 27 Apr 13:21:50 13:24:24 16° 352° (N) 13:26:56 437.485
LO-87 27 Apr 13:25:52 13:29:20 42° 306° (NW) 13:32:44 145.935 - 145.965
O/OREOS (USA 219) 27 Apr 13:26:06 13:30:45 79° 337° (NNW) 13:35:24 437.305
XW-2B 27 Apr 13:26:14 13:28:15 14° 17° (NNE) 13:30:17 145.730 - 145.750
AO-73 27 Apr 13:26:19 13:29:10 18° 338° (NNW) 13:32:02 145.935
QB50P2 27 Apr 13:28:42 13:29:44 11° 288° (WNW) 13:30:45 145.880/145.840
DELFI C3 27 Apr 13:29:10 13:32:21 23° 326° (NW) 13:35:31 145.870
DOVE 4 27 Apr 13:32:46 13:36:46 24° 24° (NNE) 13:40:39 437.250
BEESAT 27 Apr 13:33:35 13:35:37 12° 72° (ENE) 13:37:39 436.000
KAITUO 1B 27 Apr 13:33:58 13:35:54 14° 16° (NNE) 13:37:51 145.475/437.950
ESTCUBE 1 27 Apr 13:34:40 13:39:12 66° 302° (WNW) 13:43:44 437.505/2401.250
LilacSat-2 27 Apr 13:37:50 13:40:02 15° 20° (NNE) 13:42:16 437.200
XW-2C 27 Apr 13:37:56 13:40:05 15° 20° (NNE) 13:42:13 145.795 - 145.815
BUGSAT 1 27 Apr 13:39:49 13:42:31 17° 278° (W) 13:45:12 437.445
Oscar 11 27 Apr 13:40:43 13:43:45 19° 340° (NNW) 13:46:48 .
CUTE-I 27 Apr 13:43:16 13:47:41 27° 18° (NNE) 13:52:05 437.470
VELOX 1 27 Apr 13:44:12 13:48:41 79° 111° (ESE) 13:53:09 145.980
50 SAT 27 Apr 13:54:27 13:58:00 73° 110° (ESE) 14:01:30 437.505
OBJECT BX 27 Apr 13:58:36 14:01:05 17° 330° (NNW) 14:03:34 145.990 - 145.960
UKube-1 27 Apr 13:58:38 14:02:52 48° 103° (ESE) 14:07:04 .
SO-50 27 Apr 14:00:15 14:03:30 20° 226° (SW) 14:06:43 436.795
UWE-3 27 Apr 14:02:20 14:04:44 15° 353° (N) 14:07:08 435.000/436.395/437.385
XW-2F 27 Apr 14:02:21 14:04:44 16° 25° (NNE) 14:07:09 145.980 - 146.000
ITAMSAT 1 27 Apr 14:07:46 14:12:59 79° 246° (WSW) 14:18:13 435.822/435.867
AO-7 27 Apr 14:09:11 14:17:30 75° 242° (WSW) 14:25:52 .
XW-2A 27 Apr 14:10:27 14:10:56 10° 9° (N) 14:11:24 145.665 - 145.685
NUDT-PHONESAT 27 Apr 14:11:21 14:13:40 16° 26° (NNE) 14:15:58 437.300
ITUPSAT 1 27 Apr 14:14:07 14:17:35 19° 82° (E) 14:21:01 437.325
CUBEBUG 2 27 Apr 14:16:56 14:19:19 15° 2° (N) 14:21:41 437.445
Oscar 19 27 Apr 14:21:43 14:25:53 24° 276° (W) 14:30:05 437.125/150
HO-68 27 Apr 14:26:41 14:33:11 39° 11° (N) 14:39:43 435.675
AAUSAT CUBESAT 2 27 Apr 14:26:59 14:29:23 15° 1° (N) 14:31:46 437.432
Gurwin Techsat 1B 27 Apr 14:29:20 14:33:56 29° 272° (W) 14:38:33 435.225
DX 1 27 Apr 14:33:23 14:37:49 86° 113° (ESE) 14:42:13 434.975-435.025
RS-15 27 Apr 14:33:48 14:45:43 58° 217° (SW) 14:57:19 29.354- 29.394
CUTE 1.7 + AOD 2 27 Apr 14:37:46 14:40:31 17° 15° (NNE) 14:43:16 437.475
AO-85 27 Apr 14:40:13 14:43:43 29° 151° (SSE) 14:47:10 145.980
SPROUT 27 Apr 14:40:47 14:44:58 55° 304° (NW) 14:49:07 437.525
BEESAT 3 27 Apr 14:41:50 14:44:37 18° 135° (SE) 14:47:25 437.485
BEESAT 2 27 Apr 14:43:58 14:45:50 13° 126° (SE) 14:47:43 435.950
XW-2D 27 Apr 14:51:32 14:54:33 23° 38° (NE) 14:57:36 145.860 - 145.880
ZACube-1 27 Apr 14:55:32 14:57:53 15° 1° (N) 15:00:15 437.345
SEEDS 27 Apr 14:56:08 14:58:50 17° 15° (NNE) 15:01:33 437.485
MOZHAYETS 4 27 Apr 14:56:15 14:59:54 22° 85° (E) 15:03:32
XW-2B 27 Apr 14:58:24 15:01:29 24° 39° (NE) 15:04:35 145.730 - 145.750
LO-87 27 Apr 14:59:36 15:02:08 18° 328° (NNW) 15:04:40 145.935 - 145.965
AO-73 27 Apr 15:01:52 15:04:13 15° 2° (N) 15:06:34 145.935
DELFI C3 27 Apr 15:03:48 15:06:04 15° 349° (NNW) 15:08:20 145.870
O/OREOS (USA 219) 27 Apr 15:05:55 15:10:32 63° 1° (N) 15:15:08 437.305
KAITUO 1B 27 Apr 15:05:56 15:08:57 24° 39° (NE) 15:11:59 145.475/437.950
YUBILEINY 27 Apr 15:06:27 15:15:12 77° 257° (WSW) 15:23:58 435.215
DOVE 4 27 Apr 15:08:46 15:13:38 41° 46° (NE) 15:18:17 437.250
XW-2C 27 Apr 15:10:10 15:13:21 27° 42° (NE) 15:16:35 145.795 - 145.815
LilacSat-2 27 Apr 15:10:10 15:13:24 27° 43° (NE) 15:16:41 437.200
BEESAT 27 Apr 15:10:26 15:14:51 35° 95° (E) 15:19:14 436.000
ESTCUBE 1 27 Apr 15:11:36 15:15:32 29° 324° (NW) 15:19:27 437.505/2401.250
Oscar 11 27 Apr 15:16:01 15:18:40 16° 3° (N) 15:21:20 .
VELOX 1 27 Apr 15:20:49 15:24:59 39° 315° (NW) 15:29:08 145.980
CUTE-I 27 Apr 15:21:50 15:26:53 44° 42° (NE) 15:31:55 437.470
50 SAT 27 Apr 15:27:35 15:30:47 32° 312° (NW) 15:33:57 437.505
OBJECT BX 27 Apr 15:32:14 15:33:40 12° 353° (N) 15:35:07 145.990 - 145.960
XW-2F 27 Apr 15:34:41 15:38:05 33° 48° (NE) 15:41:30 145.980 - 146.000
UKube-1 27 Apr 15:34:47 15:39:04 57° 305° (NW) 15:43:19 .
UWE-3 27 Apr 15:37:19 15:39:59 17° 17° (NNE) 15:42:39 435.000/436.395/437.385
XW-2A 27 Apr 15:40:29 15:42:37 16° 31° (NNE) 15:44:45 145.665 - 145.685
NUDT-PHONESAT 27 Apr 15:43:28 15:46:47 33° 48° (NE) 15:50:08 437.300
ITAMSAT 1 27 Apr 15:48:41 15:53:12 29° 270° (W) 15:57:45 435.822/435.867
CUBESAT XI-V 27 Apr 15:49:32 15:52:55 19° 80° (E) 15:56:19 437.345
ITUPSAT 1 27 Apr 15:51:43 15:56:27 55° 105° (ESE) 16:01:09 437.325
CUBEBUG 2 27 Apr 15:51:45 15:54:47 20° 26° (NNE) 15:57:47 437.445
AAUSAT CUBESAT 2 27 Apr 16:00:42 16:03:40 19° 24° (NNE) 16:06:37 437.432
AO-7 27 Apr 16:04:04 16:11:36 37° 269° (W) 16:19:12 .
DX 1 27 Apr 16:09:44 16:13:47 36° 317° (NW) 16:17:48 434.975-435.025
CUTE 1.7 + AOD 2 27 Apr 16:11:44 16:15:20 27° 38° (NE) 16:18:57 437.475
HO-68 27 Apr 16:13:06 16:20:02 54° 36° (NE) 16:27:00 435.675
Gurwin Techsat 1B 27 Apr 16:14:39 16:15:46 11° 296° (WNW) 16:16:53 435.225
SPROUT 27 Apr 16:16:51 16:20:18 24° 327° (NNW) 16:23:45 437.525
BEESAT 3 27 Apr 16:17:43 16:21:24 35° 157° (SSE) 16:25:06 437.485
BEESAT 2 27 Apr 16:19:05 16:22:34 28° 148° (SSE) 16:26:05 435.950
AO-85 27 Apr 16:19:45 16:23:33 43° 174° (S) 16:27:18 145.980
XW-2D 27 Apr 16:24:33 16:28:16 61° 60° (ENE) 16:32:02 145.860 - 145.880
SEEDS 27 Apr 16:29:57 16:33:31 27° 38° (NE) 16:37:08 437.485
ZACube-1 27 Apr 16:30:04 16:33:00 19° 25° (NNE) 16:35:58 437.345
XW-2B 27 Apr 16:31:30 16:35:14 65° 62° (ENE) 16:39:01 145.730 - 145.750
LO-87 27 Apr 16:33:07 16:34:31 12° 351° (N) 16:35:54 145.935 - 145.965
MOZHAYETS 4 27 Apr 16:33:17 16:37:53 67° 107° (ESE) 16:42:30
AO-73 27 Apr 16:36:19 16:39:17 19° 25° (NNE) 16:42:15 145.935
DELFI C3 27 Apr 16:37:20 16:39:37 15° 12° (NNE) 16:41:54 145.870
KKS-1 27 Apr 16:38:40 16:42:36 29° 92° (E) 16:46:31 437.445
KAITUO 1B 27 Apr 16:38:50 16:42:31 64° 61° (ENE) 16:46:15 145.475/437.950
XW-2C 27 Apr 16:43:27 16:47:12 77° 64° (ENE) 16:51:01 145.795 - 145.815
LilacSat-2 27 Apr 16:43:34 16:47:21 79° 67° (ENE) 16:51:11 437.200
O/OREOS (USA 219) 27 Apr 16:45:38 16:50:17 83° 24° (NNE) 16:54:55 437.305
RS-15 27 Apr 16:45:38 16:55:59 34° 247° (WSW) 17:06:04 29.354- 29.394
DOVE 4 27 Apr 16:45:51 16:51:07 84° 248° (WSW) 16:56:09 437.250
ESTCUBE 1 27 Apr 16:48:08 16:51:19 19° 348° (NNW) 16:54:31 437.505/2401.250
BEESAT 27 Apr 16:48:18 16:53:06 82° 300° (WNW) 16:57:54 436.000
Oscar 11 27 Apr 16:50:23 16:53:40 21° 27° (NNE) 16:56:57 .
VELOX 1 27 Apr 16:57:15 17:00:39 22° 337° (NNW) 17:04:02 145.980
50 SAT 27 Apr 17:00:48 17:02:57 16° 334° (NNW) 17:05:06 437.505
CUTE-I 27 Apr 17:01:23 17:06:45 84° 245° (WSW) 17:12:08 437.470
YUBILEINY 27 Apr 17:03:20 17:11:04 37° 284° (WNW) 17:18:49 435.215
OBJECT BX 27 Apr 17:04:21 17:06:09 13° 16° (NNE) 17:07:57 145.990 - 145.960
STARS 27 Apr 17:07:45 17:11:33 27° 91° (E) 17:15:18 437.465
XW-2F 27 Apr 17:08:17 17:12:02 78° 250° (WSW) 17:15:50 145.980 - 146.000
UKube-1 27 Apr 17:10:56 17:14:33 26° 328° (NNW) 17:18:09 .
XW-2A 27 Apr 17:11:35 17:14:44 38° 53° (NE) 17:17:53 145.665 - 145.685
UWE-3 27 Apr 17:11:54 17:15:29 29° 40° (NE) 17:19:06 435.000/436.395/437.385
NUDT-PHONESAT 27 Apr 17:16:50 17:20:32 77° 250° (WSW) 17:24:16 437.300
CUBESAT XI-V 27 Apr 17:26:39 17:31:20 54° 103° (ESE) 17:35:59 437.345
CUBEBUG 2 27 Apr 17:26:42 17:30:39 39° 49° (NE) 17:34:32 437.445
ITUPSAT 1 27 Apr 17:29:43 17:34:24 56° 308° (NW) 17:39:05 437.325
ITAMSAT 1 27 Apr 17:33:19 17:34:28 11° 294° (WNW) 17:35:39 435.822/435.867
AAUSAT CUBESAT 2 27 Apr 17:34:27 17:38:17 36° 47° (NE) 17:42:09 437.432
DX 1 27 Apr 17:45:52 17:49:08 21° 340° (NNW) 17:52:23 434.975-435.025
CUTE 1.7 + AOD 2 27 Apr 17:46:29 17:50:42 66° 60° (ENE) 17:54:59 437.475
SPROUT 27 Apr 17:52:28 17:55:10 17° 350° (N) 17:57:50 437.525
BEESAT 3 27 Apr 17:54:40 17:58:32 45° 180° (S) 18:02:24 437.485
BEESAT 2 27 Apr 17:55:55 17:59:46 43° 171° (S) 18:03:40 435.950
XW-2D 27 Apr 17:59:11 18:02:42 37° 262° (W) 18:06:16 145.860 - 145.880
AO-85 27 Apr 17:59:47 18:03:28 37° 198° (SSW) 18:07:08 145.980
HO-68 27 Apr 18:00:23 18:07:36 85° 241° (WSW) 18:14:52 435.675
AO-7 27 Apr 18:02:25 18:07:16 16° 297° (WNW) 18:12:09 .
SEEDS 27 Apr 18:04:33 18:08:45 67° 60° (ENE) 18:13:00 437.485
ZACube-1 27 Apr 18:04:40 18:08:30 37° 48° (NE) 18:12:21 437.345
LO-87 27 Apr 18:05:10 18:06:44 12° 14° (NNE) 18:08:18 145.935 - 145.965
XW-2B 27 Apr 18:06:15 18:09:43 34° 264° (W) 18:13:14 145.730 - 145.750
DELFI C3 27 Apr 18:10:09 18:13:21 23° 35° (NE) 18:16:34 145.870
MOZHAYETS 4 27 Apr 18:10:37 18:15:01 46° 310° (NW) 18:19:26
AO-73 27 Apr 18:10:54 18:14:45 38° 48° (NE) 18:18:36 145.935
KAITUO 1B 27 Apr 18:13:23 18:16:48 34° 263° (W) 18:20:17 145.475/437.950
KKS-1 27 Apr 18:15:13 18:19:44 89° 122° (ESE) 18:24:12 437.445
XW-2C 27 Apr 18:18:28 18:21:48 29° 266° (W) 18:25:10 145.795 - 145.815
LilacSat-2 27 Apr 18:18:43 18:22:03 29° 267° (W) 18:25:25 437.200
ESTCUBE 1 27 Apr 18:23:45 18:26:55 19° 11° (N) 18:30:05 437.505/2401.250
DOVE 4 27 Apr 18:24:48 18:29:26 31° 271° (W) 18:33:54 437.250
Oscar 11 27 Apr 18:24:58 18:29:03 42° 50° (NE) 18:33:10 .
O/OREOS (USA 219) 27 Apr 18:25:08 18:29:36 49° 229° (SW) 18:34:01 437.305
STRAND 1 27 Apr 18:25:53 18:29:23 18° 78° (ENE) 18:32:52 437.568
BEESAT 27 Apr 18:26:13 18:30:33 35° 321° (NW) 18:34:53 436.000
VELOX 1 27 Apr 18:32:58 18:35:57 18° 1° (N) 18:38:56 145.980
50 SAT 27 Apr 18:33:38 18:34:46 11° 357° (N) 18:35:56 437.505
OBJECT BX 27 Apr 18:35:57 18:38:52 23° 39° (NE) 18:41:48 145.990 - 145.960
CUTE-I 27 Apr 18:42:44 18:47:31 32° 269° (W) 18:52:18 437.470
XW-2F 27 Apr 18:43:49 18:46:47 22° 272° (W) 18:49:46 145.980 - 146.000
STARS 27 Apr 18:44:04 18:48:30 84° 114° (ESE) 18:52:54 437.465
XW-2A 27 Apr 18:44:10 18:47:28 53° 255° (WSW) 18:50:47 145.665 - 145.685
UKube-1 27 Apr 18:46:37 18:49:34 18° 351° (N) 18:52:29 .
UWE-3 27 Apr 18:47:24 18:51:35 75° 63° (ENE) 18:55:46 435.000/436.395/437.385
NUDT-PHONESAT 27 Apr 18:52:11 18:55:03 21° 272° (W) 18:57:56 437.300
RS-15 27 Apr 18:58:27 19:04:13 15° 278° (W) 19:09:56 29.354- 29.394
YUBILEINY 27 Apr 19:00:07 19:05:25 18° 312° (NW) 19:10:42 435.215
CUBEBUG 2 27 Apr 19:02:55 19:07:10 73° 252° (WSW) 19:11:22 437.445
CUBESAT XI-V 27 Apr 19:04:12 19:08:49 55° 306° (NW) 19:13:27 437.345
ITUPSAT 1 27 Apr 19:07:36 19:11:38 28° 331° (NNW) 19:15:41 437.325
AAUSAT CUBESAT 2 27 Apr 19:09:22 19:13:33 81° 248° (WSW) 19:17:47 437.432
DX 1 27 Apr 19:21:14 19:24:11 18° 3° (N) 19:27:07 434.975-435.025
CUTE 1.7 + AOD 2 27 Apr 19:22:49 19:26:50 39° 263° (W) 19:30:54 437.475
M-CUBED/EXP-1 PRIME 27 Apr 19:26:19 19:29:28 19° 92° (E) 19:32:29 437.505
SPROUT 27 Apr 19:27:05 19:29:52 17° 14° (NNE) 19:32:39 437.525
BEESAT 3 27 Apr 19:31:58 19:35:39 34° 203° (SSW) 19:39:21 437.485
BEESAT 2 27 Apr 19:33:17 19:37:07 41° 194° (SSW) 19:40:58 435.950
LO-87 27 Apr 19:36:25 19:39:10 21° 36° (NE) 19:41:55 145.935 - 145.965
XW-2D 27 Apr 19:36:46 19:37:59 11° 285° (WNW) 19:39:12 145.860 - 145.880
AO-85 27 Apr 19:40:08 19:43:06 20° 220° (SW) 19:46:04 145.980
ZACube-1 27 Apr 19:40:29 19:44:39 76° 249° (WSW) 19:48:50 437.345
SEEDS 27 Apr 19:40:46 19:44:45 38° 263° (W) 19:48:46 437.485
DELFI C3 27 Apr 19:43:39 19:47:35 54° 57° (ENE) 19:51:33 145.870
XW-2B 27 Apr 19:44:19 19:45:04 10° 286° (WNW) 19:45:47 145.730 - 145.750
AO-73 27 Apr 19:46:42 19:50:52 74° 251° (WSW) 19:55:02 145.935
MOZHAYETS 4 27 Apr 19:47:49 19:51:27 24° 333° (NNW) 19:55:06
HO-68 27 Apr 19:49:36 19:56:15 39° 267° (W) 20:02:58 435.675
KAITUO 1B 27 Apr 19:51:21 19:51:57 10° 286° (WNW) 19:52:34 145.475/437.950
KKS-1 27 Apr 19:51:57 19:56:03 36° 318° (NW) 20:00:07 437.445
ESTCUBE 1 27 Apr 19:58:49 20:02:42 28° 35° (NE) 20:06:35 437.505/2401.250
Oscar 11 27 Apr 20:00:47 20:05:06 69° 252° (WSW) 20:09:28 .
BEESAT 27 Apr 20:03:48 20:07:26 22° 345° (NNW) 20:11:05 436.000
50 SAT 27 Apr 20:04:47 20:06:33 13° 19° (NNE) 20:08:20 437.505
STRAND 1 27 Apr 20:04:48 20:09:48 49° 102° (ESE) 20:14:45 437.568
O/OREOS (USA 219) 27 Apr 20:04:59 20:08:11 19° 253° (WSW) 20:11:21 437.305
DOVE 4 27 Apr 20:07:00 20:08:43 11° 294° (WNW) 20:10:25 437.250
VELOX 1 27 Apr 20:07:49 20:11:16 22° 24° (NNE) 20:14:44 145.980
OBJECT BX 27 Apr 20:08:29 20:12:06 62° 61° (ENE) 20:15:44 145.990 - 145.960
XW-2A 27 Apr 20:19:06 20:20:58 14° 277° (W) 20:22:51 145.665 - 145.685
STARS 27 Apr 20:20:35 20:24:38 37° 316° (NW) 20:28:40 437.465
UKube-1 27 Apr 20:21:23 20:24:25 19° 15° (NNE) 20:27:29 .
UWE-3 27 Apr 20:24:38 20:28:27 33° 265° (W) 20:32:16 435.000/436.395/437.385
CUTE-I 27 Apr 20:27:20 20:29:20 12° 293° (WNW) 20:31:19 437.470
CUBEBUG 2 27 Apr 20:41:08 20:44:30 22° 273° (W) 20:47:51 437.445
CUBESAT XI-V 27 Apr 20:41:39 20:45:35 27° 329° (NNW) 20:49:31 437.345
PRISM 27 Apr 20:44:54 20:47:05 14° 78° (ENE) 20:49:15 437.425
ITUPSAT 1 27 Apr 20:44:55 20:48:24 21° 354° (N) 20:51:55 437.325
AAUSAT CUBESAT 2 27 Apr 20:46:10 20:49:38 25° 272° (W) 20:53:09 437.432
DX 1 27 Apr 20:55:47 20:59:17 23° 27° (NNE) 21:02:46 434.975-435.025
M-CUBED/EXP-1 PRIME 27 Apr 21:00:25 21:04:51 55° 115° (ESE) 21:08:59 437.505
SPROUT 27 Apr 21:01:10 21:04:47 27° 37° (NE) 21:08:24 437.525
CUTE 1.7 + AOD 2 27 Apr 21:01:51 21:03:51 13° 286° (WNW) 21:05:53 437.475
LO-87 27 Apr 21:08:32 21:12:04 53° 59° (ENE) 21:15:38 145.935 - 145.965
BEESAT 3 27 Apr 21:09:40 21:12:26 18° 226° (SW) 21:15:11 437.485
BEESAT 2 27 Apr 21:10:55 21:14:15 24° 217° (SW) 21:17:33 435.950
TIGRISAT 27 Apr 21:17:03 21:19:50 17° 80° (E) 21:22:36 435.000
ZACube-1 27 Apr 21:18:16 21:21:37 23° 273° (W) 21:24:59 437.345
DELFI C3 27 Apr 21:18:38 21:22:31 45° 259° (W) 21:26:26 145.870
SEEDS 27 Apr 21:19:43 21:21:38 13° 286° (WNW) 21:23:34 437.485
MOZHAYETS 4 27 Apr 21:24:23 21:27:28 18° 357° (N) 21:30:34
AO-73 27 Apr 21:24:30 21:27:49 22° 273° (W) 21:31:07 145.935
KKS-1 27 Apr 21:28:26 21:31:46 21° 341° (NNW) 21:35:05 437.445
ESTCUBE 1 27 Apr 21:34:30 21:38:59 63° 58° (ENE) 21:43:31 437.505/2401.250
50 SAT 27 Apr 21:35:40 21:38:35 25° 41° (NE) 21:41:31 437.505
UNISAT 6 27 Apr 21:38:26 21:41:49 22° 86° (E) 21:45:12 437.425
Oscar 11 27 Apr 21:38:38 21:42:01 22° 275° (W) 21:45:26 .
BEESAT 27 Apr 21:40:32 21:44:02 21° 8° (N) 21:47:34 436.000
HO-68 27 Apr 21:41:48 21:46:14 17° 293° (WNW) 21:50:41 435.675
OBJECT BX 27 Apr 21:42:40 21:46:03 35° 263° (W) 21:49:27 145.990 - 145.960
VELOX 1 27 Apr 21:42:45 21:46:59 42° 47° (NE) 21:51:12 145.980
STRAND 1 27 Apr 21:44:10 21:49:15 65° 305° (NW) 21:54:18 437.568
UKube-1 27 Apr 21:55:43 21:59:32 30° 38° (NE) 22:03:20 .
STARS 27 Apr 21:56:53 22:00:09 21° 340° (NNW) 22:03:26 437.465
FO-29 27 Apr 21:57:10 22:01:35 27° 87° (E) 22:06:01 435.910
UWE-3 27 Apr 22:05:10 22:06:13 11° 288° (WNW) 22:07:16 435.000/436.395/437.385
CUBESAT XI-V 27 Apr 22:18:34 22:21:50 19° 352° (N) 22:25:08 437.345
PRISM 27 Apr 22:19:26 22:23:27 42° 100° (E) 22:27:27 437.425
ITUPSAT 1 27 Apr 22:21:22 22:25:05 23° 18° (NNE) 22:28:48 437.325
DX 1 27 Apr 22:30:34 22:34:47 46° 49° (NE) 22:39:00 434.975-435.025
EO-79 27 Apr 22:32:58 22:34:36 12° 74° (ENE) 22:36:14 145.935-145.965
DUCHIFAT 1 27 Apr 22:33:56 22:34:58 11° 72° (ENE) 22:36:00 145.980
M-CUBED/EXP-1 PRIME 27 Apr 22:34:55 22:39:23 58° 318° (NW) 22:43:34 437.505
SPROUT 27 Apr 22:35:59 22:40:14 66° 60° (ENE) 22:44:30 437.525
AIST 2D 27 Apr 22:36:57 22:38:58 14° 82° (E) 22:41:00 435.315
LO-87 27 Apr 22:42:12 22:45:41 41° 260° (W) 22:49:09 145.935 - 145.965
BEESAT 2 27 Apr 22:50:31 22:50:50 10° 239° (WSW) 22:51:08 435.950
TIGRISAT 27 Apr 22:53:20 22:57:30 51° 103° (ESE) 23:01:43 435.000
DELFI C3 27 Apr 22:56:04 22:58:18 14° 282° (WNW) 23:00:33 145.870
MOZHAYETS 4 27 Apr 23:00:01 23:03:26 21° 20° (NNE) 23:06:52
KKS-1 27 Apr 23:04:08 23:07:10 18° 4° (N) 23:10:12 437.445
50 SAT 27 Apr 23:07:39 23:11:09 74° 65° (ENE) 23:14:42 437.505
ESTCUBE 1 27 Apr 23:11:41 23:16:03 45° 260° (W) 23:20:27 437.505/2401.250
POLYITAN 1 27 Apr 23:11:53 23:14:56 19° 84° (E) 23:17:58 437.675
UNISAT 6 27 Apr 23:15:00 23:19:17 70° 109° (ESE) 23:23:35 437.425
BEESAT 27 Apr 23:16:42 23:20:48 30° 32° (NNE) 23:24:55 436.000
QB50P2 27 Apr 23:18:29 23:21:46 21° 86° (E) 23:25:02 145.880/145.840
VELOX 1 27 Apr 23:18:50 23:23:19 73° 249° (WSW) 23:27:50 145.980
OBJECT BX 27 Apr 23:20:17 23:20:50 10° 285° (WNW) 23:21:22 145.990 - 145.960
STRAND 1 27 Apr 23:23:25 23:27:54 32° 328° (NNW) 23:32:24 437.568
BUGSAT 1 27 Apr 23:30:23 23:31:54 12° 75° (ENE) 23:33:25 437.445
UKube-1 27 Apr 23:30:50 23:35:11 74° 59° (ENE) 23:39:32 .
STARS 27 Apr 23:32:26 23:35:21 18° 3° (N) 23:38:18 437.465
NANOSAT C BR1 27 Apr 23:39:05 23:42:35 25° 89° (E) 23:46:04 145.865
FO-29 27 Apr 23:42:22 23:47:39 76° 112° (ESE) 23:52:55 435.910
CUBESAT XI-V 27 Apr 23:54:33 23:57:59 20° 16° (NNE) 00:01:26 437.345
PRISM 27 Apr 23:54:49 23:58:59 61° 303° (WNW) 00:03:05 437.425
ITUPSAT 1 27 Apr 23:57:39 00:02:04 38° 41° (NE) 00:06:29 437.325
DX 1 28 Apr 00:06:34 00:10:57 64° 252° (WSW) 00:15:21 434.975-435.025
EO-79 28 Apr 00:07:40 00:11:36 36° 97° (E) 00:15:31 145.935-145.965
DUCHIFAT 1 28 Apr 00:08:07 00:11:57 33° 95° (E) 00:15:46 145.980
M-CUBED/EXP-1 PRIME 28 Apr 00:09:16 00:13:20 32° 341° (NNW) 00:17:12 437.505
AIST 2D 28 Apr 00:09:31 00:12:59 52° 104° (ESE) 00:16:27 435.315
SPROUT 28 Apr 00:12:23 00:16:26 39° 262° (W) 00:20:29 437.525
LO-87 28 Apr 00:18:35 00:20:04 12° 282° (WNW) 00:21:35 145.935 - 145.965
TIGRISAT 28 Apr 00:30:10 00:34:20 52° 306° (NW) 00:38:30 435.000
MOZHAYETS 4 28 Apr 00:35:32 00:39:44 37° 44° (NE) 00:43:58
Oscar 19 28 Apr 00:37:07 00:40:56 20° 80° (E) 00:44:44 437.125/150
KKS-1 28 Apr 00:39:03 00:42:39 24° 28° (NNE) 00:46:15 437.445
YUBILEINY 28 Apr 00:39:12 00:43:49 16° 42° (NE) 00:48:27 435.215
50 SAT 28 Apr 00:41:21 00:44:27 28° 265° (W) 00:47:33 437.505
POLYITAN 1 28 Apr 00:47:23 00:51:34 60° 106° (ESE) 00:55:43 437.675
Gurwin Techsat 1B 28 Apr 00:49:17 00:52:54 18° 77° (ENE) 00:56:30 435.225
ESTCUBE 1 28 Apr 00:51:18 00:54:01 15° 283° (WNW) 00:56:44 437.505/2401.250
UNISAT 6 28 Apr 00:51:54 00:55:55 41° 312° (NW) 00:59:57 437.425
BEESAT 28 Apr 00:53:21 00:58:03 62° 55° (NE) 01:02:47 436.000
QB50P2 28 Apr 00:54:05 00:58:19 68° 108° (ESE) 01:02:32 145.880/145.840
VELOX 1 28 Apr 00:56:51 01:00:30 24° 272° (W) 01:04:10 145.980
STRAND 1 28 Apr 01:02:07 01:06:03 23° 352° (N) 01:09:59 437.568
BUGSAT 1 28 Apr 01:04:38 01:08:27 37° 98° (E) 01:12:12 437.445
STARS 28 Apr 01:07:08 01:10:37 23° 26° (NNE) 01:14:05 437.465
UKube-1 28 Apr 01:07:32 01:11:34 36° 262° (W) 01:15:37 .
NANOSAT C BR1 28 Apr 01:14:41 01:18:55 80° 110° (ESE) 01:23:07 145.865
PCSat 28 Apr 01:25:35 01:27:48 13° 107° (ESE) 01:30:01 145.827
FO-29 28 Apr 01:27:43 01:32:42 45° 316° (NW) 01:37:40 435.910
CUBESAT XI-V 28 Apr 01:30:12 01:34:23 33° 39° (NE) 01:38:36 437.345
PRISM 28 Apr 01:30:15 01:33:46 26° 325° (NW) 01:37:15 437.425
ITUPSAT 1 28 Apr 01:34:51 01:39:39 89° 254° (WSW) 01:44:29 437.325
AIST 2D 28 Apr 01:42:52 01:46:12 41° 305° (NW) 01:49:33 435.315
M-CUBED/EXP-1 PRIME 28 Apr 01:43:04 01:47:00 28° 3° (N) 01:50:45 437.505
EO-79 28 Apr 01:43:30 01:47:42 70° 299° (WNW) 01:51:54 145.935-145.965
DUCHIFAT 1 28 Apr 01:43:49 01:48:02 76° 296° (WNW) 01:52:12 145.980
DX 1 28 Apr 01:44:37 01:47:58 21° 274° (W) 01:51:19 434.975-435.025
SPROUT 28 Apr 01:51:28 01:53:31 13° 285° (WNW) 01:55:35 437.525
AO-7 28 Apr 01:53:48 01:59:22 19° 69° (ENE) 02:04:57 .
ITAMSAT 1 28 Apr 02:06:12 02:09:12 15° 74° (ENE) 02:12:12 435.822/435.867
TIGRISAT 28 Apr 02:07:01 02:10:26 24° 329° (NNW) 02:13:51 435.000
MOZHAYETS 4 28 Apr 02:12:04 02:16:39 87° 243° (WSW) 02:21:18
KKS-1 28 Apr 02:14:14 02:18:33 49° 50° (NE) 02:22:53 437.445
Oscar 19 28 Apr 02:16:17 02:21:25 53° 104° (ESE) 02:26:32 437.125/150
POLYITAN 1 28 Apr 02:23:20 02:27:21 45° 309° (NW) 02:31:23 437.675
UNISAT 6 28 Apr 02:28:42 02:31:54 21° 335° (NNW) 02:35:06 437.425
Gurwin Techsat 1B 28 Apr 02:29:00 02:34:10 47° 100° (E) 02:39:20 435.225
QB50P2 28 Apr 02:30:03 02:34:02 41° 311° (NW) 02:38:00 145.880/145.840
YUBILEINY 28 Apr 02:30:33 02:37:53 32° 71° (ENE) 02:45:16 435.215
BEESAT 28 Apr 02:31:26 02:36:03 48° 258° (WSW) 02:40:42 436.000
STRAND 1 28 Apr 02:39:59 02:44:03 25° 16° (NNE) 02:48:08 437.568
BUGSAT 1 28 Apr 02:40:04 02:44:06 66° 300° (WNW) 02:48:06 437.445
STARS 28 Apr 02:42:03 02:46:16 45° 49° (NE) 02:50:29 437.465
UKube-1 28 Apr 02:47:07 02:48:52 12° 285° (WNW) 02:50:38 .
NANOSAT C BR1 28 Apr 02:50:35 02:54:28 36° 314° (NW) 02:58:18 145.865
PCSat 28 Apr 03:05:02 03:09:43 30° 131° (SE) 03:14:26 145.827
PRISM 28 Apr 03:05:20 03:08:03 17° 348° (NNW) 03:10:47 437.425
CUBESAT XI-V 28 Apr 03:06:40 03:11:22 77° 63° (ENE) 03:16:07 437.345
FO-29 28 Apr 03:12:39 03:17:00 27° 342° (NNW) 03:21:17 435.910
ITUPSAT 1 28 Apr 03:13:50 03:18:05 31° 267° (W) 03:22:21 437.325
AIST 2D 28 Apr 03:16:25 03:18:47 17° 327° (NNW) 03:21:10 435.315
M-CUBED/EXP-1 PRIME 28 Apr 03:16:26 03:20:41 36° 25° (NNE) 03:24:47 437.505
EO-79 28 Apr 03:19:27 03:23:03 28° 322° (NW) 03:26:39 145.935-145.965
DUCHIFAT 1 28 Apr 03:19:41 03:23:19 30° 320° (NW) 03:26:58 145.980
TIGRISAT 28 Apr 03:43:23 03:46:03 16° 352° (N) 03:48:43 435.000
ITAMSAT 1 28 Apr 03:45:11 03:50:06 41° 98° (E) 03:55:01 435.822/435.867
AO-7 28 Apr 03:46:55 03:54:45 42° 96° (E) 04:02:33 .
MOZHAYETS 4 28 Apr 03:50:24 03:54:25 29° 269° (W) 03:58:27
KKS-1 28 Apr 03:50:41 03:55:08 61° 253° (WSW) 03:59:36 437.445
Oscar 19 28 Apr 03:55:46 04:00:57 62° 306° (NW) 04:06:06 437.125/150
POLYITAN 1 28 Apr 03:59:14 04:02:29 22° 331° (NNW) 04:05:43 437.675
UNISAT 6 28 Apr 04:04:51 04:07:28 16° 358° (N) 04:10:05 437.425
QB50P2 28 Apr 04:05:56 04:09:06 21° 334° (NNW) 04:12:15 145.880/145.840
Gurwin Techsat 1B 28 Apr 04:09:08 04:14:27 69° 303° (WNW) 04:19:45 435.225
BEESAT 28 Apr 04:11:51 04:14:59 17° 281° (W) 04:18:07 436.000
BUGSAT 1 28 Apr 04:15:37 04:19:02 26° 323° (NW) 04:22:24 437.445
STRAND 1 28 Apr 04:17:37 04:22:21 39° 40° (NE) 04:27:05 437.568
STARS 28 Apr 04:18:12 04:22:36 65° 252° (WSW) 04:27:00 437.465
YUBILEINY 28 Apr 04:24:52 04:33:28 68° 98° (E) 04:42:07 435.215
NANOSAT C BR1 28 Apr 04:26:21 04:29:22 19° 337° (NNW) 04:32:22 145.865
DOVE 4 28 Apr 04:30:50 04:33:20 14° 70° (ENE) 04:35:47 437.250
PRISM 28 Apr 04:39:27 04:42:10 17° 11° (NNE) 04:44:53 437.425
CUBESAT XI-V 28 Apr 04:44:48 04:49:10 37° 265° (W) 04:53:35 437.345
PCSat 28 Apr 04:47:07 04:52:26 56° 155° (SSE) 04:57:46 145.827
AIST 2D 28 Apr 04:49:55 04:50:55 11° 350° (N) 04:51:54 435.315
M-CUBED/EXP-1 PRIME 28 Apr 04:50:04 04:54:44 69° 47° (NE) 04:59:16 437.505
EO-79 28 Apr 04:55:05 04:57:51 17° 345° (NNW) 05:00:37 145.935-145.965
DUCHIFAT 1 28 Apr 04:55:18 04:58:05 18° 343° (NNW) 05:00:52 145.980
ITUPSAT 1 28 Apr 04:56:14 04:57:29 11° 291° (WNW) 04:58:44 437.325
FO-29 28 Apr 04:56:42 05:00:57 24° 7° (N) 05:05:03 435.910
CUTE-I 28 Apr 05:03:51 05:07:05 16° 74° (ENE) 05:10:19 437.470
HO-68 28 Apr 05:12:27 05:15:25 13° 58° (ENE) 05:18:23 435.675
XW-2D 28 Apr 05:17:29 05:19:38 14° 80° (E) 05:21:49 145.860 - 145.880
TIGRISAT 28 Apr 05:18:42 05:21:33 18° 16° (NNE) 05:24:23 435.000
RS-15 28 Apr 05:19:31 05:26:54 19° 90° (E) 05:34:17 29.354- 29.394
XW-2B 28 Apr 05:24:22 05:26:43 15° 81° (E) 05:29:03 145.730 - 145.750
ITAMSAT 1 28 Apr 05:24:49 05:30:01 77° 302° (WNW) 05:35:12 435.822/435.867
KKS-1 28 Apr 05:29:14 05:32:34 20° 276° (W) 05:35:56 437.445
KAITUO 1B 28 Apr 05:30:16 05:32:29 15° 81° (E) 05:34:42 145.475/437.950
POLYITAN 1 28 Apr 05:34:37 05:37:10 16° 355° (N) 05:39:43 437.675
Oscar 19 28 Apr 05:35:08 05:39:42 32° 330° (NNW) 05:44:15 437.125/150
XW-2C 28 Apr 05:36:12 05:38:54 18° 84° (E) 05:41:34 145.795 - 145.815
LilacSat-2 28 Apr 05:36:59 05:39:46 19° 85° (E) 05:42:33 437.200
UNISAT 6 28 Apr 05:39:57 05:43:01 19° 22° (NNE) 05:46:04 437.425
AO-7 28 Apr 05:40:14 05:48:37 83° 123° (ESE) 05:56:59 .
QB50P2 28 Apr 05:41:13 05:43:46 16° 357° (N) 05:46:18 145.880/145.840
Gurwin Techsat 1B 28 Apr 05:49:09 05:53:55 34° 327° (NNW) 05:58:41 435.225
BUGSAT 1 28 Apr 05:50:54 05:53:25 16° 346° (NNW) 05:55:56 437.445
STRAND 1 28 Apr 05:56:07 06:01:15 88° 65° (ENE) 06:06:24 437.568
STARS 28 Apr 05:56:22 05:59:45 21° 274° (W) 06:03:09 437.465
XW-2F 28 Apr 06:00:21 06:03:29 24° 90° (E) 06:06:37 145.980 - 146.000
NANOSAT C BR1 28 Apr 06:01:25 06:03:56 16° 0° (N) 06:06:26 145.865
NUDT-PHONESAT 28 Apr 06:07:02 06:10:04 23° 90° (E) 06:13:06 437.300
DOVE 4 28 Apr 06:07:52 06:12:28 39° 95° (E) 06:16:47 437.250
SO-50 28 Apr 06:08:35 06:10:09 12° 121° (ESE) 06:11:42 436.795
PRISM 28 Apr 06:12:58 06:16:27 26° 34° (NE) 06:19:57 437.425
AIST 2D 28 Apr 06:21:45 06:22:54 11° 13° (NNE) 06:24:03 435.315
YUBILEINY 28 Apr 06:21:55 06:30:36 65° 306° (NW) 06:39:20 435.215
M-CUBED/EXP-1 PRIME 28 Apr 06:24:50 06:29:22 47° 248° (WSW) 06:33:48 437.505
CUBESAT XI-V 28 Apr 06:25:43 06:27:56 13° 289° (WNW) 06:30:09 437.345
EO-79 28 Apr 06:29:49 06:32:26 16° 8° (N) 06:35:02 145.935-145.965
DUCHIFAT 1 28 Apr 06:30:01 06:32:34 16° 6° (N) 06:35:06 145.980
PCSat 28 Apr 06:30:10 06:35:36 71° 179° (S) 06:41:02 145.827
CUBEBUG 2 28 Apr 06:40:03 06:41:27 11° 73° (ENE) 06:42:51 437.445
FO-29 28 Apr 06:40:07 06:45:02 34° 33° (NNE) 06:49:43 435.910
CUTE-I 28 Apr 06:43:31 06:48:36 42° 98° (E) 06:53:39 437.470
XW-2D 28 Apr 06:51:01 06:54:45 48° 102° (ESE) 06:58:27 145.860 - 145.880
CUTE 1.7 + AOD 2 28 Apr 06:52:46 06:56:00 20° 84° (E) 06:59:14 437.475
TIGRISAT 28 Apr 06:53:35 06:57:17 29° 39° (NE) 07:00:58 435.000
XW-2B 28 Apr 06:58:01 07:01:46 52° 103° (ESE) 07:05:30 145.730 - 145.750
HO-68 28 Apr 06:59:38 07:05:52 30° 85° (E) 07:12:05 435.675
KAITUO 1B 28 Apr 07:03:41 07:07:22 50° 103° (ESE) 07:11:04 145.475/437.950
ITAMSAT 1 28 Apr 07:04:23 07:09:06 36° 325° (NW) 07:13:49 435.822/435.867
POLYITAN 1 28 Apr 07:08:55 07:11:46 18° 18° (NNE) 07:14:36 437.675
SEEDS 28 Apr 07:09:39 07:12:51 20° 84° (E) 07:16:02 437.485
XW-2C 28 Apr 07:10:02 07:13:50 62° 107° (ESE) 07:17:37 145.795 - 145.815
LilacSat-2 28 Apr 07:10:56 07:14:46 64° 108° (ESE) 07:18:36 437.200
Oscar 19 28 Apr 07:13:54 07:17:56 23° 354° (N) 07:22:00 437.125/150
UNISAT 6 28 Apr 07:14:58 07:18:54 35° 45° (NE) 07:22:48 437.425
QB50P2 28 Apr 07:15:26 07:18:23 19° 20° (NNE) 07:21:19 145.880/145.840
ZACube-1 28 Apr 07:15:28 07:16:27 11° 71° (ENE) 07:17:27 437.345
AO-73 28 Apr 07:21:13 07:22:22 11° 72° (ENE) 07:23:31 145.935
XW-2A 28 Apr 07:24:40 07:27:27 24° 92° (E) 07:30:15 145.665 - 145.685
RS-15 28 Apr 07:24:52 07:35:40 39° 119° (ESE) 07:46:31 29.354- 29.394
BUGSAT 1 28 Apr 07:25:11 07:27:35 15° 9° (N) 07:30:00 437.445
Gurwin Techsat 1B 28 Apr 07:28:37 07:32:50 24° 351° (N) 07:37:02 435.225
AO-7 28 Apr 07:33:11 07:41:18 61° 328° (NNW) 07:49:25 .
Oscar 11 28 Apr 07:34:14 07:36:07 12° 73° (ENE) 07:37:59 .
XW-2F 28 Apr 07:34:21 07:38:10 85° 115° (ESE) 07:42:00 145.980 - 146.000
NANOSAT C BR1 28 Apr 07:35:27 07:38:29 20° 24° (NNE) 07:41:32 145.865
STRAND 1 28 Apr 07:36:21 07:41:01 35° 266° (W) 07:45:42 437.568
NUDT-PHONESAT 28 Apr 07:40:47 07:44:31 84° 111° (ESE) 07:48:16 437.300
SO-50 28 Apr 07:45:32 07:49:22 27° 143° (SE) 07:53:09 436.795
DOVE 4 28 Apr 07:45:39 07:50:34 73° 298° (WNW) 07:55:10 437.250
PRISM 28 Apr 07:47:06 07:51:14 61° 57° (ENE) 07:55:23 437.425
AIST 2D 28 Apr 07:52:34 07:55:04 19° 35° (NE) 07:57:35 435.315
UWE-3 28 Apr 07:58:46 08:02:08 23° 87° (E) 08:05:32 435.000/436.395/437.385
M-CUBED/EXP-1 PRIME 28 Apr 08:01:41 08:04:47 17° 270° (W) 08:07:51 437.505
EO-79 28 Apr 08:03:46 08:07:08 23° 31° (NNE) 08:10:29 145.935-145.965
DUCHIFAT 1 28 Apr 08:03:54 08:07:09 22° 29° (NNE) 08:10:24 145.980
AAUSAT CUBESAT 2 28 Apr 08:12:25 08:16:09 29° 92° (E) 08:19:51 437.432
PCSat 28 Apr 08:13:26 08:18:47 57° 204° (SSW) 08:24:08 145.827
CUBEBUG 2 28 Apr 08:15:29 08:19:21 35° 96° (E) 08:23:13 437.445
YUBILEINY 28 Apr 08:21:01 08:29:09 40° 336° (NNW) 08:37:20 435.215
CUTE-I 28 Apr 08:23:44 08:29:05 76° 302° (WNW) 08:34:24 437.470
FO-29 28 Apr 08:24:06 08:29:44 71° 57° (ENE) 08:34:58 435.910
XW-2D 28 Apr 08:25:20 08:29:01 48° 304° (NW) 08:32:43 145.860 - 145.880
CUTE 1.7 + AOD 2 28 Apr 08:28:22 08:32:39 63° 106° (ESE) 08:36:56 437.475
TIGRISAT 28 Apr 08:29:18 08:33:35 73° 62° (ENE) 08:37:51 435.000
XW-2B 28 Apr 08:32:21 08:36:00 45° 305° (NW) 08:39:40 145.730 - 145.750
KAITUO 1B 28 Apr 08:37:49 08:41:27 46° 305° (NW) 08:45:05 145.475/437.950
DELFI C3 28 Apr 08:41:37 08:43:50 14° 78° (ENE) 08:46:01 145.870
POLYITAN 1 28 Apr 08:42:56 08:46:39 31° 41° (NE) 08:50:21 437.675
ITAMSAT 1 28 Apr 08:43:29 08:47:37 25° 348° (NNW) 08:51:45 435.822/435.867
XW-2C 28 Apr 08:44:24 08:47:58 39° 308° (NW) 08:51:33 145.795 - 145.815
SEEDS 28 Apr 08:45:05 08:49:21 63° 106° (ESE) 08:53:36 437.485
LilacSat-2 28 Apr 08:45:23 08:48:59 39° 309° (NW) 08:52:35 437.200
HO-68 28 Apr 08:47:42 08:54:55 68° 110° (ESE) 09:02:07 435.675
QB50P2 28 Apr 08:49:31 08:53:19 33° 43° (NE) 08:57:07 145.880/145.840
ZACube-1 28 Apr 08:50:14 08:54:03 33° 94° (E) 08:57:54 437.345
UNISAT 6 28 Apr 08:51:04 08:55:25 85° 251° (WSW) 08:59:43 437.425
Oscar 19 28 Apr 08:51:51 08:56:05 26° 18° (NNE) 09:00:20 437.125/150
AO-73 28 Apr 08:56:04 08:59:54 34° 95° (E) 09:03:46 145.935
XW-2A 28 Apr 08:57:15 09:00:38 84° 293° (WNW) 09:04:01 145.665 - 145.685
OBJECT BX 28 Apr 08:57:29 08:59:20 13° 80° (E) 09:01:09 145.990 - 145.960
BUGSAT 1 28 Apr 08:58:41 09:01:55 23° 32° (NNE) 09:05:08 437.445
Gurwin Techsat 1B 28 Apr 09:07:16 09:11:36 26° 15° (NNE) 09:15:55 435.225
XW-2F 28 Apr 09:08:42 09:12:05 31° 314° (NW) 09:15:29 145.980 - 146.000
Oscar 11 28 Apr 09:09:26 09:13:31 37° 96° (E) 09:17:34 .
NANOSAT C BR1 28 Apr 09:09:32 09:13:25 37° 46° (NE) 09:17:18 145.865
